FALCON 9 DEB (53236 NORAD) Tracking and Keplerian Element Data

This shows tracking and keplerian element data for the satellite.

Feedback or suggestion? Click here.




ElementValue
Catalog53236
NameFALCON 9 DEB
Epoch Orbit1031
Epoch Day267.33273861
Epoch Year2022
RAAN333.6402
Inclination97.6553
Eccentricity0.0010928
Argument of Perigee263.4907
Mean Anonmoly96.5153
Mean Motion16.50438239
Decay Rate0.13574559
L11 53236U 22084AZ 22267.33273861 .13574559 27800-5 14050-3 0 9991
L22 53236 97.6553 333.6402 0010928 263.4907 96.5153 16.50438239 10313

Live tracking and technical data element details for FALCON 9 DEB (NORAD 53236). FALCON 9 DEB can be tracked NOW for your location showing map with azimuth and elevation plus other details from your city location.

Track the satellite on the map from your city or location and see movement details for azimuth, elevation, latitude, longitude, range, height, and movement on the map or in text.







IsCatalogInMostPopularTable: catalog: 53236, numindb: 2
Update: records affected: 1



GetName: 53236 FALCON 9 DEB

Hit Count: updated at: Fri, 30 Sep 2022 04:03:02 GMT